#timestamp,LO_Frequency,Hit,StdDev 
1507240815.3,286046984.5,N
1507240835.2,286046989.5,N
1507240855.9,286046987.7,N
1507240875.7,286046985.3,N
1507240895.5,286046985.7,N
1507240915.4,286046988.4,N
1507240935.2,286046982.1,Y
1507240955.1,286046992.5,P
1507240956.0,286046992.5,P
1507240975.8,286046993.0,P
1507240995.6,286046988.5,Y
1507241015.5,286046999.1,P
1507241035.3,286047000.0,N
1507241055.1,286047002.8,N
1507241075.9,286047001.9,N
1507241095.7,286047000.4,N
1507241115.5,286047000.2,N
1507241135.3,286047003.1,N
1507241155.2,286047002.5,N
1507241175.9,286047001.8,N
1507241195.7,286047001.5,N
1507241215.6,286047004.2,N
1507241235.4,286047003.2,N
1507241255.2,286047008.3,N
1507241275.1,286047008.2,N
1507241276.0,286047008.2,N
1507241295.8,286047008.1,N
1507241315.6,286047011.7,N
1507241335.5,286047014.8,Y
1507241355.3,286047009.8,P
1507241375.1,286047011.0,P
1507241395.9,286047011.7,P
1507241415.7,286047014.2,Y
1507241435.5,286047003.9,P
1507241455.4,286047004.0,N
1507241475.2,286047004.5,N
1507241495.0,286047004.5,N
1507241495.9,286047004.5,N
1507241515.8,286047005.5,Y
1507241535.6,286047000.6,P
1507241555.4,286046996.6,N
1507241575.3,286046998.4,N
1507241595.1,286046999.4,N
1507241596.0,286046999.4,N
1507241615.8,286046999.8,N
1507241635.7,286047002.3,N
1507241655.5,286047002.4,N
1507241675.3,286047003.5,N
1507241695.2,286047010.7,Y
1507241715.9,286047011.5,P
1507241735.7,286047011.4,N
1507241755.5,286047008.1,N
1507241775.4,286047012.0,N
1507241795.2,286047010.1,N
1507241815.0,286047006.7,N
1507241815.9,286047006.7,N
1507241835.8,286047008.0,N
1507241855.6,286047012.1,Y
1507241875.4,286047001.4,P
1507241895.3,286047001.5,N
1507241915.1,286046998.6,N
1507241935.8,286046999.5,N
1507241955.7,286047000.3,N
1507241975.5,286047002.7,N
1507241995.3,286047002.6,N
1507242015.2,286047003.6,N
1507242035.9,286047005.4,N
1507242055.7,286047005.7,N
1507242075.6,286047003.6,N
1507242095.4,286047002.3,N
1507242115.2,286047000.2,N
1507242135.0,286047004.3,N
1507242136.0,286047004.3,N
1507242155.8,286047004.4,N
1507242175.6,286047004.9,N
1507242195.4,286047006.7,N
1507242215.3,286047006.9,N
1507242235.1,286047005.2,N
1507242255.8,286047005.1,N
1507242275.7,286047006.4,N
1507242295.5,286047004.5,N
1507242315.3,286047004.9,N
1507242335.2,286047004.2,N
1507242355.9,286047008.0,Y
1507242375.7,286047003.0,P
1507242395.6,286046998.3,P
1507242415.4,286046998.0,N
1507242435.2,286046993.3,N
1507242455.1,286046997.5,N
1507242456.0,286046997.5,N
1507242475.8,286046998.0,N
1507242495.6,286046998.0,N
1507242515.5,286046995.3,N
1507242535.3,286046997.2,N
1507242555.1,286046993.5,N
1507242575.8,286046995.1,N
1507242595.7,286046993.9,N
1507242615.5,286046993.1,N
1507242635.3,286046991.6,N
1507242655.2,286046991.2,N
1507242675.9,286046989.7,Y
1507242695.7,286046991.7,P
1507242715.6,286046994.5,N
1507242735.4,286046993.5,P
1507242755.2,286046996.2,N
1507242775.1,286046997.6,N
1507242776.0,286046997.6,N
1507242795.8,286046998.3,N
1507242815.6,286046999.0,N
1507242835.5,286046995.0,N
1507242855.3,286046991.8,Y
1507242875.1,286046993.9,P
1507242895.9,286046991.4,P
1507242915.7,286046989.0,P
1507242935.5,286046987.7,Y
1507242955.4,286046993.4,P
1507242975.2,286046994.3,P
1507242995.0,286046994.1,P
1507242995.9,286046994.1,Y
1507243015.8,286046999.7,P
1507243035.6,286046997.0,N
1507243055.4,286046996.7,N
1507243075.3,286046996.9,N
1507243095.1,286046998.3,N
1507243096.0,286046998.3,N
1507243115.8,286046998.9,N
1507243135.7,286046999.1,N
1507243155.5,286046997.0,N
1507243175.3,286047000.4,N
1507243195.1,286047001.6,N
1507243215.9,286046998.5,N
1507243235.7,286047000.7,N
1507243255.5,286046998.7,N
1507243275.4,286046997.3,N
1507243295.2,286046997.5,N
1507243315.0,286046995.2,N
1507243315.9,286046995.2,N
1507243335.8,286046994.3,N
1507243355.6,286046995.5,N
1507243375.4,286047001.0,N
1507243395.3,286046998.4,N
1507243415.1,286046997.5,N
1507243416.0,286046997.5,N
1507243435.8,286046993.4,Y
1507243455.7,286046998.8,P
1507243475.5,286046997.0,P
1507243495.3,286046997.0,P
1507243515.2,286046996.5,Y
1507243535.9,286047000.5,P
1507243555.7,286046998.5,N
1507243575.6,286046998.1,N
1507243595.4,286046998.4,N
1507243615.2,286047001.0,N
1507243635.1,286047000.9,N
1507243636.0,286047000.9,N
1507243655.8,286046999.7,N
1507243675.6,286047002.3,N
1507243695.5,286046999.8,N
1507243715.3,286047002.4,N
1507243735.1,286047000.0,N
1507243755.8,286046998.4,N
1507243775.7,286046999.3,N
1507243795.5,286047000.9,N
1507243815.3,286047004.4,Y
1507243835.2,286047002.3,P
1507243855.0,286047000.6,N
1507243855.9,286047000.6,N
1507243875.7,286047000.6,N
1507243895.6,286046998.2,N
1507243915.4,286047000.3,N
1507243935.2,286047002.0,N
1507243955.1,286047001.4,N
1507243956.0,286047001.4,N
1507243975.8,286047004.1,Y
1507243995.6,286046998.1,P
1507244015.5,286046999.5,N
1507244035.3,286046999.6,N
1507244055.1,286046999.2,N
1507244075.9,286046996.8,Y
1507244095.7,286046997.4,P
1507244115.5,286046997.3,N
1507244135.4,286047001.1,N
1507244155.2,286046998.1,N
1507244175.0,286047000.1,N
1507244175.9,286047000.1,N
1507244195.8,286046997.6,N
1507244215.6,286046997.7,N
1507244235.4,286047003.9,N
1507244255.3,286047007.6,Y
1507244275.1,286047010.0,P
1507244276.0,286047010.0,N
1507244295.8,286047015.2,N
1507244315.7,286047015.3,N
1507244335.5,286047018.9,Y
1507244355.3,286047009.4,P
1507244375.2,286047010.5,P
1507244395.9,286047010.3,P
